Погода в Городище

Украина / Луганская область     48°19′23″N   38°37′55″E
темп.,
°C
ветер,
м/с
пор.,
м/с
влажн.,
%
обл.,
%
осадки,
мм/ч
давл.,
гПа
погр.,
м
31 июля, сб
сб3100:00+19ю227779 0.0 100914
03:00+19юз1182100 0.0 100912
06:00+19юз11877 0.0 100956
09:00+24зюз22678 0.0 1009604
12:00+28зсз11532 4.6 10101076
15:00+30ссз114229 5.4 10091957
18:00+27ссз465568 0.0 1010332
21:00+24с38604 0.0 1011174
1 августа, вс
вс100:00+22ссв34675 0.0 101163
03:00+21ссв22715 0.0 101225
06:00+21с23742 0.0 101269
09:00+27св34550 0.0 1012477
12:00+31в34390 0.0 10121696
15:00+33ююв232829 0.0 10102824
18:00+32св123195 0.0 10101209
21:00+28с4538100 0.0 1011125
2 августа, пн
пн200:00+24св36542 0.0 1011104
03:00+22всв225527 0.0 101124
06:00+22вюв11475 0.0 101211
09:00+30ю23303 0.0 1011424
12:00+34ю34230 0.0 10111887
15:00+35ююз24204 0.0 10093559
18:00+34з342872 0.0 1008256
21:00+27сз33480 0.0 100933
3 августа, вт
вт300:00+25сз224415 0.0 101012
03:00+26сз114189 0.0 101011
06:00+23ссз22544 0.0 101032
09:00+29ссв11400 0.0 1010373
12:00+34зюз45291 0.0 10102446
15:00+33зсз663157 0.0 10092304
18:00+30зсз6640100 0.0 10091303
21:00+24зсз4967100 0.6 1011249
4 августа, ср
ср400:00+21сз2779100 0.8 1012189
03:00+20ссз388489 1.2 1013154
06:00+19ссз37820 0.0 1014169
09:00+23ссв566017 0.1 1015621
12:00+27с444136 0.0 10151858
15:00+28ссз443491 0.0 10152383
18:00+27ссз4536100 0.0 10151340
21:00+22ссв410470 0.0 1016207